Location: Branche des Alpilles
(43.6087°N, 4.6976°E)
Time: 18:38:06
(UTC+00:00)

Cosmos 1943 Rocket - Visible Passes

Search period start: 16 April 2021 00:00
Search period end: 26 April 2021 00:00
Orbit: 811 x 844 km, 71.0° (Epoch: 15 April)

Date Brightness Start Highest point End Pass type
(mag) Time Alt. Az. Time Alt. Az. Time Alt. Az.
16 Apr 3.5 03:01:18 10° S 03:06:28 37° ESE 03:11:37 10° NE visible
17 Apr 3.6 02:42:58 13° SSE 02:47:17 33° ESE 02:52:17 10° NE visible
17 Apr 2.8 04:25:38 10° SW 04:30:56 39° WNW 04:36:14 10° NNE visible
18 Apr 3.8 02:24:37 16° SSE 02:28:08 29° ESE 02:32:55 10° NE visible
18 Apr 2.7 04:06:15 10° SW 04:11:39 44° WNW 04:17:04 10° NNE visible
19 Apr 3.9 02:06:13 18° SE 02:08:58 25° ESE 02:13:31 10° NE visible
19 Apr 2.5 03:47:46 14° SW 03:52:23 50° WNW 03:57:53 10° NNE visible
20 Apr 4.0 01:47:44 18° SE 01:49:50 22° E 01:54:05 10° NE visible
20 Apr 2.4 03:29:16 20° SW 03:33:07 56° WNW 03:38:42 10° NNE visible
21 Apr 4.1 01:29:12 18° ESE 01:30:42 19° E 01:34:36 10° NE visible
21 Apr 2.3 03:10:43 26° SW 03:13:53 63° WNW 03:19:30 10° NNE visible
22 Apr 4.2 01:10:37 16° ESE 01:11:33 17° E 01:15:04 10° ENE visible
22 Apr 2.2 02:52:08 34° SW 02:54:38 72° WNW 03:00:18 10° NNE visible
23 Apr 4.3 00:51:58 15° ESE 00:52:26 15° E 00:55:26 10° ENE visible
23 Apr 2.1 02:33:30 43° SW 02:35:25 81° WNW 02:41:06 10° NNE visible
24 Apr 4.5 00:33:17 13° E 00:33:18 13° E 00:35:39 10° ENE visible
24 Apr 2.1 02:14:49 54° SSW 02:16:11 90° E 02:21:52 10° NNE visible
24 Apr 4.0 03:57:04 10° W 04:00:44 17° NW 04:04:23 10° N visible
25 Apr 4.6 00:14:34 11° E 00:14:34 11° E 00:15:29 10° E visible
25 Apr 2.1 01:56:05 64° S 01:56:58 80° ESE 02:02:38 10° NNE visible
25 Apr 3.9 03:37:37 11° W 03:41:24 19° NW 03:45:21 10° N visible
